Regional Weather Roundup
Issued by NWS Raleigh/Durham, NC

Home | Current Version | Previous Version | Text Only | Print | Product List | Glossary On
Versions: 1 2 3 4 5 6 7 8 9 10 11 12 13 14 15 16 17 18 19 20 21 22 23 24 25 26 27 28 29 30 31 32 33 34 35 36 37 38 39 40 41 42 43 44 45 46 47 48 49 50
000
ASUS42 KRAH 022010
RWRRAH
NORTH CAROLINA WEATHER ROUNDUP
NATIONAL WEATHER SERVICE RALEIGH NC
400 PM EDT TUE SEP 02 2014

NOTE: "FAIR" INDICATES FEW OR NO CLOUDS BELOW 12,000 FEET WITH NO
SIGNIFICANT WEATHER AND/OR OBSTRUCTIONS TO VISIBILITY.

NCZ001-053-055-056-065-067-022100-
WESTERN NORTH CAROLINA

CITY           SKY/WX    TMP DP  RH WIND       PRES   REMARKS
ASHEVILLE      LGT RAIN  77  69  76 NW6       30.10F
JEFFERSON      CLOUDY    76  65  67 SE3       30.14F
HICKORY        PTSUNNY   83  68  60 N10G20    30.02F
RUTHERFORDTON  PTSUNNY   88  70  55 NW8       30.04S
MOUNT AIRY     LGT RAIN  76  73  90 CALM      30.06S
BOONE          CLOUDY    74  73  94 SE3       30.14F
$$

NCZ021-022-025-041-071-084-088-022100-
CENTRAL NORTH CAROLINA

CITY           SKY/WX    TMP DP  RH WIND       PRES   REMARKS
CHARLOTTE      MOSUNNY   93  66  40 SW7       30.00F HX  96
GREENSBORO     PTSUNNY   92  64  39 VRB3      29.99F
WINSTON-SALEM  MOSUNNY   94  64  37 SW8       30.01F HX  95
RALEIGH-DURHAM MOSUNNY   94  68  42 W8        29.98F HX  98
FORT BRAGG     PTSUNNY   90  68  48 E10G18    29.98F
FAYETTEVILLE   PTSUNNY   79  73  82 E7        29.97F THUNDER
BURLINGTON     MOSUNNY   95  64  35 S6        29.97F HX  97
LAURINBURG     LGT RAIN  77  71  82 SW9       30.00F
$$

NCZ011-015-027-028-043-044-047-080-103-022100-
NORTHEASTERN NORTH CAROLINA

CITY           SKY/WX    TMP DP  RH WIND       PRES   REMARKS
ROCKY MT-WILSO SUNNY     95  68  41 SW8       29.98F HX  99
GREENVILLE     SUNNY     93  72  49 SW10      30.00F HX 100
WASHINGTON     SUNNY     93  72  49 S8        29.98F HX 101
ELIZABETH CITY MOSUNNY   93  73  52 SW14      29.96F HX 102
MANTEO         MOSUNNY   89  78  71 S15       29.98S HX 103
CAPE HATTERAS  SUNNY     84  77  79 SW14G22   30.01F
$$

NCZ078-087-090-091-093-098-101-022100-
SOUTHEASTERN NORTH CAROLINA

CITY           SKY/WX    TMP DP  RH WIND       PRES   REMARKS
LUMBERTON      MOSUNNY   94  70  45 S9G20     29.97F HX 100
GOLDSBORO      MOSUNNY   96  74  49 S7        29.96F HX 107
KINSTON        MOSUNNY   93  72  49 SW10      29.99F HX 100
KENANSVILLE    SUNNY     93  69  45 S5        30.00F HX  97
NEW BERN       MOSUNNY   93  77  59 S10       30.00F HX 107
CHERRY POINT   SUNNY     89  74  60 SW14      30.02F HX  98
BEAUFORT       SUNNY     86  77  74 SW17      30.02F HX  97
JACKSONVILLE   SUNNY     88  75  65 S15G24    30.01F HX  97
WILMINGTON     MOSUNNY   89  74  60 S12       30.02F HX  98
$$



USA.gov is the U.S. government's official web portal to all federal, state and local government web resources and services.